| time (UTC) | temp F | wind direction | speed MPH | gust MPH | rain 1hr in | rain 24hr in | rain mn in | humidity % | barometer mb |
| 20260506014008 | 72 | 297 | 2.0 | 7.0 | 0.00 | 0.02 | 0.02 | 44 | 1008.8 |
| 20260506013503 | 72 | 72 | 0.0 | 2.0 | 0.00 | 0.02 | 0.02 | 45 | 1008.8 |
| 20260506013027 | 72 | 60 | 0.0 | 2.0 | 0.00 | 0.02 | 0.02 | 45 | 1008.8 |
| 20260506012507 | 72 | 48 | 0.0 | 2.0 | 0.00 | 0.02 | 0.02 | 44 | 1008.7 |
| 20260506012004 | 72 | 55 | 0.0 | 3.0 | 0.00 | 0.02 | 0.02 | 45 | 1008.7 |
| 20260506011530 | 72 | 148 | 1.0 | 4.0 | 0.00 | 0.02 | 0.02 | 44 | 1008.5 |
| 20260506011010 | 72 | 327 | 1.0 | 4.0 | 0.00 | 0.02 | 0.02 | 43 | 1008.5 |
| 20260506010508 | 72 | 352 | 0.0 | 2.0 | 0.00 | 0.02 | 0.02 | 44 | 1008.5 |
| 20260506010024 | 73 | 77 | 0.0 | 2.0 | 0.00 | 0.02 | 0.02 | 43 | 1008.5 |
| 20260506005504 | 73 | 22 | 0.0 | 2.0 | 0.00 | 0.02 | 0.02 | 44 | 1008.4 |
| 20260506005007 | 73 | 34 | 0.0 | 2.0 | 0.00 | 0.02 | 0.02 | 43 | 1008.3 |
| 20260506004523 | 74 | 117 | 0.0 | 3.0 | 0.00 | 0.02 | 0.02 | 43 | 1008.3 |
| 20260506004004 | 74 | 83 | 0.0 | 3.0 | 0.00 | 0.02 | 0.02 | 42 | 1008.3 |
| 20260506003510 | 74 | 220 | 0.0 | 5.0 | 0.00 | 0.02 | 0.02 | 43 | 1008.3 |
| 20260506003024 | 75 | 58 | 0.0 | 7.0 | 0.00 | 0.02 | 0.02 | 41 | 1008.1 |
| 20260506002511 | 75 | 182 | 2.0 | 7.0 | 0.00 | 0.02 | 0.02 | 40 | 1008.1 |
| 20260506002008 | 75 | 171 | 0.0 | 6.0 | 0.00 | 0.02 | 0.02 | 41 | 1008.1 |
| 20260506001519 | 75 | 59 | 2.0 | 6.0 | 0.00 | 0.02 | 0.02 | 41 | 1008.0 |
| 20260506001009 | 75 | 54 | 0.0 | 4.0 | 0.00 | 0.02 | 0.02 | 42 | 1008.0 |
| 20260506000509 | 75 | 146 | 1.0 | 4.0 | 0.00 | 0.02 | 0.02 | 41 | 1007.9 |
| 20260506000019 | 75 | 84 | 0.0 | 3.0 | 0.00 | 0.02 | 0.02 | 40 | 1007.9 |
| 20260505235507 | 76 | 97 | 1.0 | 3.0 | 0.00 | 0.02 | 0.02 | 41 | 1007.9 |
| 20260505235008 | 76 | 89 | 0.0 | 4.0 | 0.00 | 0.02 | 0.02 | 40 | 1007.8 |
| 20260505234526 | 76 | 61 | 1.0 | 4.0 | 0.00 | 0.02 | 0.02 | 40 | 1007.7 |
| 20260505234007 | 76 | 151 | 0.0 | 4.0 | 0.00 | 0.02 | 0.02 | 39 | 1007.6 |
| 20260505233506 | 76 | 122 | 0.0 | 7.0 | 0.00 | 0.02 | 0.02 | 41 | 1007.7 |
| 20260505233027 | 76 | 340 | 1.0 | 7.0 | 0.00 | 0.02 | 0.02 | 39 | 1007.6 |
| 20260505232512 | 76 | 62 | 0.0 | 3.0 | 0.00 | 0.02 | 0.02 | 41 | 1007.6 |
| 20260505232006 | 76 | 76 | 1.0 | 7.0 | 0.00 | 0.02 | 0.02 | 39 | 1007.6 |
| 20260505231528 | 77 | 19 | 1.0 | 8.0 | 0.00 | 0.02 | 0.02 | 39 | 1007.6 |
| 20260505231008 | 77 | 78 | 2.0 | 8.0 | 0.00 | 0.02 | 0.02 | 38 | 1007.5 |
| 20260505230509 | 77 | 51 | 2.0 | 6.0 | 0.00 | 0.02 | 0.02 | 38 | 1007.5 |
| 20260505230027 | 77 | 180 | 0.0 | 4.0 | 0.00 | 0.02 | 0.02 | 38 | 1007.4 |
| 20260505225508 | 77 | 34 | 0.0 | 3.0 | 0.00 | 0.02 | 0.02 | 39 | 1007.3 |
| 20260505225010 | 77 | 202 | 0.0 | 4.0 | 0.00 | 0.02 | 0.02 | 40 | 1007.1 |
| 20260505224523 | 77 | 229 | 1.0 | 8.0 | 0.00 | 0.02 | 0.02 | 39 | 1007.0 |
| 20260505224007 | 77 | 86 | 1.0 | 8.0 | 0.00 | 0.02 | 0.02 | 38 | 1007.1 |
| 20260505223510 | 77 | 74 | 1.0 | 5.0 | 0.00 | 0.02 | 0.02 | 39 | 1007.1 |
| 20260505223030 | 78 | 141 | 1.0 | 3.0 | 0.00 | 0.02 | 0.02 | 38 | 1007.0 |
| 20260505222509 | 78 | 74 | 0.0 | 8.0 | 0.00 | 0.02 | 0.02 | 39 | 1007.0 |
| 20260505222009 | 78 | 171 | 1.0 | 8.0 | 0.00 | 0.02 | 0.02 | 37 | 1007.0 |
| 20260505221525 | 78 | 148 | 2.0 | 7.0 | 0.00 | 0.02 | 0.02 | 38 | 1007.0 |
| 20260505221011 | 78 | 116 | 1.0 | 11.0 | 0.00 | 0.02 | 0.02 | 37 | 1007.0 |
| 20260505220509 | 78 | 67 | 4.0 | 11.0 | 0.00 | 0.02 | 0.02 | 36 | 1006.9 |
| 20260505220020 | 78 | 203 | 2.0 | 8.0 | 0.00 | 0.02 | 0.02 | 36 | 1007.0 |
| 20260505215509 | 78 | 144 | 1.0 | 8.0 | 0.00 | 0.02 | 0.02 | 37 | 1006.8 |
| 20260505215006 | 79 | 90 | 2.0 | 7.0 | 0.00 | 0.02 | 0.02 | 36 | 1006.8 |
| 20260505214523 | 79 | 119 | 2.0 | 13.0 | 0.00 | 0.02 | 0.02 | 36 | 1006.7 |
| 20260505214007 | 79 | 325 | 3.0 | 13.0 | 0.00 | 0.02 | 0.02 | 36 | 1006.6 |
| 20260505213507 | 80 | 74 | 0.0 | 9.0 | 0.00 | 0.02 | 0.02 | 35 | 1006.8 |
| 20260505213029 | 80 | 142 | 2.0 | 14.0 | 0.00 | 0.02 | 0.02 | 35 | 1006.8 |
| 20260505212503 | 80 | 103 | 2.0 | 14.0 | 0.00 | 0.02 | 0.02 | 37 | 1006.7 |
| 20260505212007 | 81 | 339 | 2.0 | 8.0 | 0.00 | 0.02 | 0.02 | 35 | 1006.7 |
| 20260505211512 | 81 | 10 | 1.0 | 12.0 | 0.00 | 0.02 | 0.02 | 37 | 1006.5 |
| 20260505211002 | 81 | 109 | 4.0 | 12.0 | 0.00 | 0.02 | 0.02 | 34 | 1006.5 |
| 20260505210508 | 81 | 30 | 3.0 | 11.0 | 0.00 | 0.02 | 0.02 | 34 | 1006.7 |
| 20260505210008 | 81 | 329 | 2.0 | 12.0 | 0.00 | 0.02 | 0.02 | 34 | 1006.5 |
| 20260505205503 | 82 | 205 | 2.0 | 12.0 | 0.00 | 0.02 | 0.02 | 37 | 1006.8 |
| 20260505205005 | 82 | 100 | 2.0 | 8.0 | 0.00 | 0.02 | 0.02 | 35 | 1006.5 |
| 20260505204506 | 83 | 192 | 1.0 | 9.0 | 0.00 | 0.02 | 0.02 | 35 | 1006.4 |
| 20260505204008 | 83 | 344 | 3.0 | 10.0 | 0.00 | 0.02 | 0.02 | 34 | 1006.5 |
| 20260505203504 | 83 | 360 | 3.0 | 10.0 | 0.00 | 0.02 | 0.02 | 35 | 1006.6 |
| 20260505203006 | 83 | 154 | 3.0 | 12.0 | 0.00 | 0.02 | 0.02 | 34 | 1006.5 |
| 20260505202507 | 83 | 186 | 2.0 | 12.0 | 0.00 | 0.02 | 0.02 | 34 | 1006.4 |
| 20260505202003 | 82 | 284 | 4.0 | 13.0 | 0.00 | 0.02 | 0.02 | 32 | 1006.6 |
| 20260505201511 | 83 | 141 | 5.0 | 13.0 | 0.00 | 0.02 | 0.02 | 30 | 1006.5 |
| 20260505201007 | 84 | 68 | 2.0 | 8.0 | 0.00 | 0.02 | 0.02 | 29 | 1006.6 |
| 20260505200505 | 84 | 331 | 2.0 | 9.0 | 0.00 | 0.02 | 0.02 | 30 | 1006.6 |
| 20260505200027 | 83 | 149 | 3.0 | 11.0 | 0.00 | 0.02 | 0.02 | 28 | 1006.7 |
| 20260505195505 | 83 | 352 | 5.0 | 12.0 | 0.00 | 0.02 | 0.02 | 29 | 1006.8 |
| 20260505195003 | 83 | 159 | 2.0 | 12.0 | 0.00 | 0.02 | 0.02 | 29 | 1007.0 |
| 20260505194520 | 83 | 258 | 2.0 | 11.0 | 0.00 | 0.02 | 0.02 | 28 | 1007.0 |
| 20260505194003 | 84 | 9 | 3.0 | 10.0 | 0.00 | 0.02 | 0.02 | 29 | 1007.0 |
| 20260505193506 | 84 | 132 | 3.0 | 7.0 | 0.00 | 0.02 | 0.02 | 31 | 1006.9 |
| 20260505193018 | 84 | 153 | 1.0 | 12.0 | 0.00 | 0.02 | 0.02 | 29 | 1007.1 |
| 20260505192504 | 83 | 85 | 1.0 | 12.0 | 0.00 | 0.02 | 0.02 | 31 | 1007.1 |
| 20260505192009 | 83 | 171 | 4.0 | 10.0 | 0.00 | 0.02 | 0.02 | 29 | 1007.1 |
| 20260505191519 | 83 | 127 | 3.0 | 10.0 | 0.00 | 0.02 | 0.02 | 30 | 1007.2 |
| 20260505191003 | 83 | 182 | 4.0 | 14.0 | 0.00 | 0.02 | 0.02 | 29 | 1007.5 |
| 20260505190507 | 83 | 155 | 4.0 | 14.0 | 0.00 | 0.02 | 0.02 | 29 | 1007.5 |
| 20260505190019 | 83 | 105 | 2.0 | 11.0 | 0.00 | 0.02 | 0.02 | 27 | 1007.6 |
| 20260505185507 | 83 | 10 | 4.0 | 15.0 | 0.00 | 0.02 | 0.02 | 29 | 1007.6 |
| 20260505185010 | 83 | 175 | 5.0 | 15.0 | 0.00 | 0.02 | 0.02 | 29 | 1007.5 |
| 20260505184512 | 83 | 86 | 3.0 | 10.0 | 0.00 | 0.02 | 0.02 | 30 | 1007.6 |
| 20260505184007 | 83 | 127 | 2.0 | 7.0 | 0.00 | 0.02 | 0.02 | 35 | 1007.7 |
| 20260505183507 | 83 | 104 | 2.0 | 12.0 | 0.00 | 0.02 | 0.02 | 34 | 1007.6 |
| 20260505183010 | 82 | 324 | 6.0 | 12.0 | 0.00 | 0.02 | 0.02 | 31 | 1007.7 |
| 20260505182507 | 82 | 304 | 3.0 | 20.0 | 0.00 | 0.02 | 0.02 | 31 | 1007.8 |
| 20260505182006 | 81 | 262 | 4.0 | 20.0 | 0.00 | 0.02 | 0.02 | 30 | 1007.8 |
| 20260505181506 | 82 | 186 | 4.0 | 23.0 | 0.00 | 0.02 | 0.02 | 30 | 1007.9 |
| 20260505181004 | 82 | 270 | 2.0 | 23.0 | 0.00 | 0.02 | 0.02 | 35 | 1008.0 |
| 20260505180502 | 82 | 159 | 4.0 | 15.0 | 0.00 | 0.02 | 0.02 | 37 | 1008.3 |
| 20260505180025 | 82 | 270 | 3.0 | 12.0 | 0.00 | 0.02 | 0.02 | 37 | 1008.4 |
| 20260505175509 | 82 | 124 | 3.0 | 12.0 | 0.00 | 0.02 | 0.02 | 38 | 1008.3 |
| 20260505175005 | 81 | 109 | 2.0 | 7.0 | 0.00 | 0.02 | 0.02 | 38 | 1008.5 |
| 20260505174524 | 82 | 132 | 2.0 | 14.0 | 0.00 | 0.02 | 0.02 | 37 | 1008.4 |
| 20260505174004 | 82 | 169 | 2.0 | 14.0 | 0.00 | 0.02 | 0.02 | 36 | 1008.5 |
| 20260505173504 | 81 | 148 | 3.0 | 11.0 | 0.00 | 0.02 | 0.02 | 36 | 1008.6 |
| 20260505173022 | 81 | 215 | 2.0 | 9.0 | 0.00 | 0.02 | 0.02 | 41 | 1008.5 |
| 20260505172505 | 80 | 152 | 2.0 | 12.0 | 0.00 | 0.02 | 0.02 | 39 | 1008.6 |
| 20260505172008 | 80 | 166 | 2.0 | 12.0 | 0.00 | 0.02 | 0.02 | 37 | 1008.6 |
| 20260505171520 | 81 | 215 | 4.0 | 11.0 | 0.00 | 0.02 | 0.02 | 40 | 1008.7 |
| 20260505171002 | 81 | 14 | 3.0 | 11.0 | 0.00 | 0.02 | 0.02 | 37 | 1008.7 |
| 20260505170507 | 81 | 171 | 1.0 | 10.0 | 0.00 | 0.02 | 0.02 | 46 | 1008.7 |
| 20260505170020 | 80 | 144 | 3.0 | 10.0 | 0.00 | 0.02 | 0.02 | 41 | 1008.8 |
| 20260505165502 | 80 | 92 | 2.0 | 9.0 | 0.00 | 0.02 | 0.02 | 43 | 1008.8 |
| 20260505165006 | 79 | 181 | 3.0 | 13.0 | 0.00 | 0.02 | 0.02 | 42 | 1008.9 |
| 20260505164516 | 79 | 9 | 3.0 | 13.0 | 0.00 | 0.02 | 0.02 | 46 | 1008.9 |
| 20260505164011 | 79 | 171 | 1.0 | 8.0 | 0.00 | 0.02 | 0.02 | 46 | 1008.9 |
| 20260505163510 | 79 | 185 | 2.0 | 8.0 | 0.00 | 0.02 | 0.02 | 41 | 1009.0 |
| 20260505163016 | 79 | 310 | 3.0 | 8.0 | 0.00 | 0.02 | 0.02 | 40 | 1009.1 |
| 20260505162507 | 79 | 175 | 2.0 | 8.0 | 0.00 | 0.02 | 0.02 | 40 | 1009.3 |
| 20260505162008 | 79 | 173 | 3.0 | 7.0 | 0.00 | 0.02 | 0.02 | 42 | 1009.2 |
| 20260505161508 | 79 | 206 | 2.0 | 6.0 | 0.00 | 0.02 | 0.02 | 43 | 1009.2 |
| 20260505161007 | 78 | 128 | 1.0 | 7.0 | 0.00 | 0.02 | 0.02 | 42 | 1009.2 |
| 20260505160509 | 78 | 323 | 1.0 | 7.0 | 0.00 | 0.02 | 0.02 | 46 | 1009.3 |
| 20260505153025 | 76 | 141 | 3.0 | 12.0 | 0.00 | 0.02 | 0.02 | 46 | 1009.6 |
| 20260505152506 | 76 | 175 | 4.0 | 7.0 | 0.00 | 0.02 | 0.02 | 48 | 1009.6 |
| 20260505152013 | 75 | 134 | 1.0 | 9.0 | 0.00 | 0.02 | 0.02 | 49 | 1009.7 |
| 20260505151526 | 75 | 332 | 2.0 | 9.0 | 0.00 | 0.02 | 0.02 | 49 | 1009.9 |
| 20260505151006 | 75 | 153 | 4.0 | 8.0 | 0.00 | 0.02 | 0.02 | 49 | 1009.8 |
| 20260505150507 | 75 | 123 | 1.0 | 6.0 | 0.00 | 0.02 | 0.02 | 50 | 1009.9 |
| 20260505140509 | 69 | 66 | 3.0 | 8.0 | 0.00 | 0.02 | 0.02 | 57 | 1010.6 |
| 20260505125009 | 58 | 91 | 0.0 | 2.0 | 0.00 | 0.02 | 0.02 | 83 | 1010.6 |
| 20260505124529 | 57 | 232 | 0.0 | 2.0 | 0.00 | 0.02 | 0.02 | 86 | 1010.6 |
| 20260505124002 | 56 | 326 | 0.0 | 2.0 | 0.00 | 0.02 | 0.02 | 90 | 1010.5 |
| 20260505123510 | 56 | 9 | 0.0 | 3.0 | 0.00 | 0.02 | 0.02 | 92 | 1010.6 |
| 20260505123028 | 55 | 322 | 1.0 | 3.0 | 0.00 | 0.02 | 0.02 | 94 | 1010.4 |
| 20260505122513 | 55 | 59 | 0.0 | 2.0 | 0.00 | 0.02 | 0.02 | 94 | 1010.5 |
| 20260505122011 | 55 | 63 | 0.0 | 2.0 | 0.00 | 0.02 | 0.02 | 94 | 1010.6 |
| 20260505121521 | 54 | 64 | 0.0 | 2.0 | 0.00 | 0.02 | 0.02 | 94 | 1010.7 |
| 20260505121009 | 54 | 118 | 0.0 | 2.0 | 0.00 | 0.02 | 0.02 | 94 | 1010.8 |
| 20260505120508 | 53 | 64 | 0.0 | 2.0 | 0.00 | 0.02 | 0.02 | 94 | 1010.7 |
| 20260505120029 | 53 | 49 | 0.0 | 2.0 | 0.00 | 0.02 | 0.02 | 94 | 1010.7 |
| 20260505115508 | 53 | 49 | 0.0 | 2.0 | 0.00 | 0.02 | 0.02 | 94 | 1010.5 |
| 20260505115007 | 52 | 37 | 0.0 | 2.0 | 0.00 | 0.02 | 0.02 | 94 | 1010.4 |
| 20260505114527 | 52 | 17 | 0.0 | 1.0 | 0.00 | 0.02 | 0.02 | 94 | 1010.3 |
| 20260505114008 | 51 | 252 | 0.0 | 0.0 | 0.00 | 0.02 | 0.02 | 93 | 1010.2 |
| 20260505113506 | 51 | 252 | 0.0 | 0.0 | 0.00 | 0.02 | 0.02 | 93 | 1010.4 |
| 20260505113028 | 51 | 252 | 0.0 | 0.0 | 0.00 | 0.02 | 0.02 | 93 | 1010.4 |
| 20260505112503 | 51 | 252 | 0.0 | 1.0 | 0.00 | 0.02 | 0.02 | 93 | 1010.4 |
| 20260505112006 | 50 | 252 | 0.0 | 1.0 | 0.00 | 0.02 | 0.02 | 92 | 1010.3 |
| 20260505111513 | 50 | 243 | 0.0 | 0.0 | 0.00 | 0.02 | 0.02 | 92 | 1010.2 |
| 20260505111003 | 50 | 319 | 0.0 | 0.0 | 0.00 | 0.02 | 0.02 | 92 | 1010.2 |
| 20260505110504 | 50 | 319 | 0.0 | 0.0 | 0.00 | 0.02 | 0.02 | 91 | 1010.1 |
| 20260505102003 | 51 | 304 | 0.0 | 0.0 | 0.01 | 0.02 | 0.02 | 92 | 1010.0 |
| 20260505101538 | 51 | 304 | 0.0 | 0.0 | 0.01 | 0.02 | 0.02 | 92 | 1009.7 |
| 20260505101007 | 50 | 304 | 0.0 | 0.0 | 0.01 | 0.02 | 0.02 | 92 | 1009.6 |
| 20260505100503 | 50 | 304 | 0.0 | 0.0 | 0.01 | 0.02 | 0.02 | 92 | 1009.5 |
| 20260505100020 | 50 | 304 | 0.0 | 0.0 | 0.02 | 0.02 | 0.02 | 92 | 1009.5 |
| 20260505095504 | 50 | 304 | 0.0 | 0.0 | 0.02 | 0.02 | 0.02 | 92 | 1009.4 |
| 20260505095003 | 50 | 304 | 0.0 | 1.0 | 0.02 | 0.02 | 0.02 | 92 | 1009.4 |
| 20260505094521 | 50 | 304 | 0.0 | 1.0 | 0.02 | 0.02 | 0.02 | 92 | 1009.4 |
| 20260505094003 | 50 | 312 | 0.0 | 0.0 | 0.02 | 0.02 | 0.02 | 92 | 1009.3 |
| 20260505093505 | 50 | 312 | 0.0 | 3.0 | 0.01 | 0.01 | 0.01 | 92 | 1009.4 |
| 20260505093016 | 49 | 310 | 1.0 | 3.0 | 0.01 | 0.01 | 0.01 | 91 | 1009.6 |
| 20260505092506 | 49 | 317 | 1.0 | 2.0 | 0.01 | 0.01 | 0.01 | 91 | 1009.4 |
| 20260505092008 | 49 | 34 | 0.0 | 2.0 | 0.01 | 0.01 | 0.01 | 90 | 1009.8 |
| 20260505091511 | 49 | 352 | 0.0 | 2.0 | 0.01 | 0.01 | 0.01 | 89 | 1010.3 |
| 20260505091004 | 49 | 59 | 0.0 | 1.0 | 0.01 | 0.01 | 0.01 | 88 | 1010.2 |
| 20260505090505 | 48 | 275 | 0.0 | 2.0 | 0.01 | 0.01 | 0.01 | 88 | 1010.3 |
| 20260505090017 | 48 | 13 | 0.0 | 2.0 | 0.00 | 0.00 | 0.00 | 87 | 1010.3 |
| 20260505085506 | 48 | 309 | 0.0 | 2.0 | 0.00 | 0.00 | 0.00 | 86 | 1010.3 |
| 20260505085006 | 48 | 309 | 0.0 | 2.0 | 0.00 | 0.00 | 0.00 | 85 | 1010.3 |
| 20260505084511 | 48 | 308 | 0.0 | 2.0 | 0.00 | 0.00 | 0.00 | 84 | 1010.0 |
| 20260505084005 | 48 | 308 | 0.0 | 0.0 | 0.00 | 0.00 | 0.00 | 83 | 1009.8 |
| 20260505083503 | 48 | 308 | 0.0 | 0.0 | 0.00 | 0.00 | 0.00 | 84 | 1009.8 |
| 20260505083024 | 48 | 308 | 0.0 | 0.0 | 0.00 | 0.00 | 0.00 | 83 | 1009.7 |
| 20260505082505 | 48 | 308 | 0.0 | 0.0 | 0.00 | 0.00 | 0.00 | 83 | 1009.5 |
| 20260505082002 | 48 | 308 | 0.0 | 0.0 | 0.00 | 0.00 | 0.00 | 83 | 1009.5 |
| 20260505081525 | 48 | 308 | 0.0 | 0.0 | 0.00 | 0.00 | 0.00 | 83 | 1009.5 |
| 20260505081007 | 48 | 308 | 0.0 | 0.0 | 0.00 | 0.00 | 0.00 | 83 | 1009.5 |
| 20260505080504 | 48 | 308 | 0.0 | 0.0 | 0.00 | 0.00 | 0.00 | 83 | 1009.5 |
| 20260505080024 | 49 | 308 | 0.0 | 0.0 | 0.00 | 0.00 | 0.00 | 83 | 1009.4 |
| 20260505075506 | 49 | 308 | 0.0 | 0.0 | 0.00 | 0.00 | 0.00 | 83 | 1009.4 |
| 20260505075012 | 49 | 308 | 0.0 | 0.0 | 0.00 | 0.00 | 0.00 | 83 | 1009.3 |
| 20260505074527 | 49 | 308 | 0.0 | 0.0 | 0.00 | 0.00 | 0.00 | 84 | 1009.3 |
| 20260505074003 | 49 | 308 | 0.0 | 0.0 | 0.00 | 0.00 | 0.00 | 84 | 1009.4 |
| 20260505073511 | 48 | 308 | 0.0 | 0.0 | 0.00 | 0.00 | 0.00 | 83 | 1009.4 |
| 20260505073017 | 48 | 308 | 0.0 | 0.0 | 0.00 | 0.00 | 0.00 | 83 | 1009.4 |
| 20260505072502 | 48 | 308 | 0.0 | 0.0 | 0.00 | 0.00 | 0.00 | 83 | 1009.4 |
| 20260505072007 | 48 | 308 | 0.0 | 0.0 | 0.00 | 0.00 | 0.00 | 83 | 1009.4 |
| 20260505071528 | 48 | 308 | 0.0 | 0.0 | 0.00 | 0.00 | 0.00 | 83 | 1009.4 |
| 20260505071007 | 48 | 308 | 0.0 | 0.0 | 0.00 | 0.00 | 0.00 | 83 | 1009.4 |
| 20260505070509 | 48 | 312 | 0.0 | 0.0 | 0.00 | 0.00 | 0.00 | 83 | 1009.5 |
| 20260505070012 | 48 | 312 | 0.0 | 0.0 | 0.00 | 0.00 | 0.00 | 83 | 1009.4 |
| 20260505065508 | 48 | 312 | 0.0 | 2.0 | 0.00 | 0.00 | 0.00 | 82 | 1009.4 |
| 20260505065007 | 48 | 312 | 0.0 | 1.0 | 0.00 | 0.00 | 0.00 | 82 | 1009.4 |
| 20260505064509 | 48 | 292 | 0.0 | 1.0 | 0.00 | 0.00 | 0.00 | 82 | 1009.4 |
| 20260505064007 | 48 | 279 | 0.0 | 1.0 | 0.00 | 0.00 | 0.00 | 82 | 1009.4 |
| 20260505063505 | 48 | 275 | 0.0 | 2.0 | 0.00 | 0.00 | 0.00 | 82 | 1009.5 |
| 20260505063028 | 48 | 275 | 0.0 | 2.0 | 0.00 | 0.00 | 0.00 | 82 | 1009.5 |
| 20260505062507 | 48 | 267 | 0.0 | 2.0 | 0.00 | 0.00 | 0.00 | 81 | 1009.5 |
| 20260505062005 | 48 | 267 | 0.0 | 1.0 | 0.00 | 0.00 | 0.00 | 81 | 1009.5 |
| 20260505061526 | 48 | 275 | 0.0 | 0.0 | 0.00 | 0.00 | 0.00 | 81 | 1009.5 |
| 20260505061007 | 48 | 275 | 0.0 | 0.0 | 0.00 | 0.00 | 0.00 | 81 | 1009.6 |
| 20260505060504 | 49 | 275 | 0.0 | 0.0 | 0.00 | 0.00 | 0.00 | 81 | 1009.6 |
| 20260505060037 | 49 | 275 | 0.0 | 1.0 | 0.00 | 0.00 | 0.00 | 81 | 1009.6 |
| 20260505055506 | 49 | 275 | 0.0 | 1.0 | 0.00 | 0.00 | 0.00 | 81 | 1009.6 |
| 20260505055012 | 49 | 275 | 0.0 | 0.0 | 0.00 | 0.00 | 0.00 | 81 | 1009.6 |
| 20260505054524 | 49 | 275 | 0.0 | 0.0 | 0.00 | 0.00 | 0.00 | 81 | 1009.7 |
| 20260505054006 | 49 | 275 | 0.0 | 0.0 | 0.00 | 0.00 | 0.00 | 81 | 1009.7 |
| 20260505053511 | 49 | 275 | 0.0 | 0.0 | 0.00 | 0.00 | 0.00 | 80 | 1009.8 |
| 20260505053024 | 49 | 275 | 0.0 | 0.0 | 0.00 | 0.00 | 0.00 | 80 | 1009.7 |
| 20260505052504 | 49 | 275 | 0.0 | 0.0 | 0.00 | 0.00 | 0.00 | 79 | 1009.7 |
| 20260505052008 | 49 | 275 | 0.0 | 0.0 | 0.00 | 0.00 | 0.00 | 79 | 1009.6 |
| 20260505051525 | 49 | 275 | 0.0 | 1.0 | 0.00 | 0.00 | 0.00 | 78 | 1009.5 |
| 20260505051010 | 49 | 275 | 0.0 | 2.0 | 0.00 | 0.00 | 0.00 | 78 | 1009.6 |
| 20260505050507 | 49 | 275 | 0.0 | 2.0 | 0.00 | 0.00 | 0.00 | 78 | 1009.6 |
| 20260505041528 | 51 | 271 | 0.0 | 0.0 | 0.00 | 0.00 | 0.00 | 75 | 1009.4 |
| 20260505041006 | 51 | 271 | 0.0 | 0.0 | 0.00 | 0.00 | 0.00 | 75 | 1009.5 |
| 20260505040503 | 52 | 271 | 0.0 | 1.0 | 0.00 | 0.00 | 0.00 | 73 | 1009.5 |
| 20260505040025 | 52 | 271 | 0.0 | 1.0 | 0.00 | 0.00 | 0.00 | 72 | 1009.4 |
| 20260505035507 | 52 | 271 | 0.0 | 0.0 | 0.00 | 0.00 | 0.00 | 70 | 1009.3 |
| 20260505035011 | 52 | 271 | 0.0 | 0.0 | 0.00 | 0.00 | 0.00 | 71 | 1009.3 |
| 20260505034526 | 53 | 271 | 0.0 | 2.0 | 0.00 | 0.00 | 0.00 | 70 | 1009.3 |
| 20260505034004 | 53 | 271 | 0.0 | 2.0 | 0.00 | 0.00 | 0.00 | 70 | 1009.4 |
| 20260505033508 | 53 | 264 | 0.0 | 0.0 | 0.00 | 0.00 | 0.00 | 69 | 1009.4 |
| 20260505033024 | 53 | 264 | 0.0 | 0.0 | 0.00 | 0.00 | 0.00 | 67 | 1009.5 |
| 20260505032504 | 54 | 264 | 0.0 | 0.0 | 0.00 | 0.00 | 0.00 | 66 | 1009.5 |
| 20260505032003 | 54 | 264 | 0.0 | 0.0 | 0.00 | 0.00 | 0.00 | 66 | 1009.5 |
| 20260505031519 | 54 | 264 | 0.0 | 0.0 | 0.00 | 0.00 | 0.00 | 65 | 1009.6 |
| 20260505031003 | 55 | 264 | 0.0 | 0.0 | 0.00 | 0.00 | 0.00 | 65 | 1009.6 |
| 20260505030509 | 55 | 263 | 0.0 | 0.0 | 0.00 | 0.00 | 0.00 | 65 | 1009.8 |
| 20260505030017 | 55 | 263 | 0.0 | 2.0 | 0.00 | 0.00 | 0.00 | 65 | 1009.7 |
| 20260505025507 | 55 | 263 | 0.0 | 2.0 | 0.00 | 0.00 | 0.00 | 64 | 1009.8 |
| 20260505025006 | 56 | 284 | 0.0 | 2.0 | 0.00 | 0.00 | 0.00 | 63 | 1009.7 |
| 20260505024516 | 56 | 284 | 0.0 | 2.0 | 0.00 | 0.00 | 0.00 | 61 | 1009.7 |
| 20260505024004 | 57 | 287 | 0.0 | 0.0 | 0.00 | 0.00 | 0.00 | 60 | 1009.7 |
| 20260505023508 | 57 | 287 | 0.0 | 0.0 | 0.00 | 0.00 | 0.00 | 59 | 1009.7 |
| 20260505023019 | 57 | 287 | 0.0 | 0.0 | 0.00 | 0.00 | 0.00 | 59 | 1009.8 |
| 20260505022507 | 58 | 287 | 0.0 | 0.0 | 0.00 | 0.00 | 0.00 | 58 | 1009.8 |
| 20260505022008 | 58 | 287 | 0.0 | 1.0 | 0.00 | 0.00 | 0.00 | 59 | 1009.8 |
| 20260505021514 | 58 | 287 | 0.0 | 2.0 | 0.00 | 0.00 | 0.00 | 59 | 1009.7 |
| 20260505021008 | 59 | 286 | 0.0 | 1.0 | 0.00 | 0.00 | 0.00 | 57 | 1009.7 |
| 20260505020506 | 59 | 287 | 0.0 | 2.0 | 0.00 | 0.00 | 0.00 | 57 | 1009.8 |
| 20260505020010 | 59 | 244 | 0.0 | 2.0 | 0.00 | 0.00 | 0.00 | 56 | 1009.8 |
| 20260505015508 | 60 | 218 | 0.0 | 2.0 | 0.00 | 0.00 | 0.00 | 52 | 1009.8 |
| 20260505015002 | 60 | 166 | 0.0 | 1.0 | 0.00 | 0.00 | 0.00 | 52 | 1009.6 |
| 20260505014526 | 60 | 225 | 0.0 | 2.0 | 0.00 | 0.00 | 0.00 | 52 | 1009.6 |